When you browse on this site, cookies collect data to enhance your experience and personalize the content and advertising you see.
Visit our Privacy Policy to learn more. By continuing to use the site, you agree to this use of cookies and data.
  • en Belgique
  • Liste des pays
  • À 7 jours
  • Température de l'eau
  • Carte satellitaire
  • Carte météo
  • Widgets météo
  • user-avatar
    Se connecter

    Météo par heure à Courtrai

    Ce jour, 20 Février, Mercredi

    Heure Température Précipitation Vent Pression Humidité
    00:00 +5°C° 0 mm 2 m/s 763 mmHg 86%
    01:00 +5°C° 0 mm 2 m/s 763 mmHg 86%
    02:00 +4°C° 0 mm 3 m/s 763 mmHg 86%
    03:00 +4°C° 0 mm 3 m/s 763 mmHg 86%
    04:00 +3°C° 0 mm 3 m/s 763 mmHg 88%
    05:00 +3°C° 0 mm 3 m/s 763 mmHg 89%
    06:00 +2°C° 0 mm 3 m/s 763 mmHg 91%
    07:00 +3°C° 0 mm 3 m/s 763 mmHg 87%
    08:00 +4°C° 0 mm 3 m/s 763 mmHg 83%
    09:00 +4°C° 0 mm 3 m/s 764 mmHg 79%
    10:00 +6°C° 0 mm 4 m/s 764 mmHg 74%
    11:00 +7°C° 0 mm 4 m/s 764 mmHg 69%
    12:00 +10°C° 0 mm 4 m/s 764 mmHg 64%
    13:00 +10°C° 0 mm 4 m/s 764 mmHg 62%
    14:00 +11°C° 0 mm 4 m/s 764 mmHg 60%
    15:00 +12°C° 0 mm 4 m/s 764 mmHg 59%
    16:00 +10°C° 0 mm 3 m/s 764 mmHg 64%
    17:00 +9°C° 0 mm 3 m/s 764 mmHg 70%
    18:00 +8°C° 0 mm 2 m/s 764 mmHg 75%
    19:00 +8°C° 0 mm 2 m/s 765 mmHg 78%
    20:00 +7°C° 0 mm 2 m/s 765 mmHg 81%
    21:00 +7°C° 0 mm 2 m/s 765 mmHg 83%
    22:00 +7°C° 0 mm 2 m/s 765 mmHg 85%
    23:00 +6°C° 0 mm 2 m/s 766 mmHg 87%

    Demain, 21 Février, Jeudi

    Heure Température Précipitation Vent Pression Humidité
    00:00 +6°C° 0 mm 2 m/s 766 mmHg 89%
    01:00 +7°C° 0 mm 2 m/s 766 mmHg 89%
    02:00 +7°C° 0 mm 2 m/s 766 mmHg 89%
    03:00 +7°C° 0 mm 2 m/s 766 mmHg 89%
    04:00 +7°C° 0 mm 2 m/s 766 mmHg 90%
    05:00 +6°C° 0 mm 2 m/s 766 mmHg 91%
    06:00 +6°C° 0 mm 2 m/s 766 mmHg 91%
    07:00 +7°C° 0 mm 2 m/s 767 mmHg 87%
    08:00 +7°C° 0 mm 2 m/s 767 mmHg 83%
    09:00 +8°C° 0 mm 2 m/s 767 mmHg 79%
    10:00 +10°C° 0 mm 3 m/s 767 mmHg 75%
    11:00 +11°C° 0 mm 3 m/s 768 mmHg 70%
    12:00 +13°C° 0 mm 3 m/s 768 mmHg 65%
    13:00 +13°C° 0 mm 3 m/s 768 mmHg 64%
    14:00 +14°C° 0 mm 2 m/s 768 mmHg 64%
    15:00 +14°C° 0 mm 2 m/s 768 mmHg 63%
    16:00 +13°C° 0 mm 1 m/s 768 mmHg 69%
    17:00 +12°C° 0 mm 1 m/s 768 mmHg 75%
    18:00 +10°C° 0 mm 0 m/s 769 mmHg 80%
    19:00 +9°C° 0 mm 0 m/s 769 mmHg 82%
    20:00 +9°C° 0 mm 0 m/s 770 mmHg 84%
    21:00 +9°C° 0 mm 1 m/s 770 mmHg 85%
    22:00 +8°C° 0 mm 0 m/s 770 mmHg 86%
    23:00 +7°C° 0 mm 0 m/s 770 mmHg 87%

    Après-demain, 22 Février, Vendredi

    Heure Température Précipitation Vent Pression Humidité
    00:00 +7°C° 0 mm 0 m/s 771 mmHg 88%
    01:00 +7°C° 0 mm 0 m/s 771 mmHg 88%
    02:00 +7°C° 0 mm 0 m/s 771 mmHg 89%
    03:00 +8°C° 0 mm 1 m/s 772 mmHg 90%
    04:00 +7°C° 0 mm 1 m/s 772 mmHg 90%
    05:00 +6°C° 0 mm 0 m/s 772 mmHg 90%
    06:00 +6°C° 0 mm 0 m/s 772 mmHg 91%
    07:00 +8°C° 0 mm 1 m/s 772 mmHg 88%
    08:00 +9°C° 0 mm 1 m/s 773 mmHg 85%
    09:00 +10°C° 0 mm 1 m/s 773 mmHg 83%
    10:00 +11°C° 0 mm 1 m/s 773 mmHg 77%
    11:00 +13°C° 0 mm 1 m/s 773 mmHg 71%
    12:00 +14°C° 0 mm 2 m/s 773 mmHg 65%
    13:00 +15°C° 0 mm 1 m/s 773 mmHg 64%
    14:00 +15°C° 0 mm 1 m/s 773 mmHg 62%
    15:00 +16°C° 0 mm 1 m/s 773 mmHg 60%
    16:00 +14°C° 0 mm 1 m/s 773 mmHg 66%
    17:00 +13°C° 0 mm 2 m/s 773 mmHg 72%
    18:00 +12°C° 0 mm 2 m/s 773 mmHg 77%
    19:00 +10°C° 0 mm 2 m/s 773 mmHg 79%
    20:00 +9°C° 0 mm 3 m/s 773 mmHg 81%
    21:00 +9°C° 0 mm 3 m/s 773 mmHg 83%
    22:00 +9°C° 0 mm 2 m/s 773 mmHg 85%
    23:00 +8°C° 0 mm 2 m/s 773 mmHg 88%

    23 Février, Samedi

    Heure Température Précipitation Vent Pression Humidité
    00:00 +8°C° 0 mm 2 m/s 773 mmHg 90%
    01:00 +8°C° 0 mm 2 m/s 773 mmHg 92%
    02:00 +7°C° 0 mm 2 m/s 772 mmHg 93%
    03:00 +7°C° 0 mm 2 m/s 772 mmHg 94%
    04:00 +7°C° 0 mm 2 m/s 772 mmHg 94%
    05:00 +7°C° 0 mm 2 m/s 772 mmHg 94%
    06:00 +6°C° 0 mm 2 m/s 772 mmHg 95%
    07:00 +7°C° 0 mm 2 m/s 772 mmHg 91%
    08:00 +8°C° 0 mm 3 m/s 772 mmHg 87%
    09:00 +9°C° 0 mm 3 m/s 772 mmHg 84%
    10:00 +10°C° 0 mm 3 m/s 772 mmHg 77%
    11:00 +12°C° 0 mm 3 m/s 772 mmHg 70%
    12:00 +13°C° 0 mm 3 m/s 772 mmHg 62%
    13:00 +13°C° 0 mm 3 m/s 772 mmHg 60%
    14:00 +14°C° 0 mm 3 m/s 771 mmHg 58%
    15:00 +14°C° 0 mm 3 m/s 771 mmHg 56%
    16:00 +14°C° 0 mm 2 m/s 771 mmHg 61%
    17:00 +12°C° 0 mm 2 m/s 771 mmHg 65%
    18:00 +10°C° 0 mm 2 m/s 771 mmHg 70%
    19:00 +9°C° 0 mm 2 m/s 771 mmHg 71%
    20:00 +9°C° 0 mm 2 m/s 772 mmHg 72%
    21:00 +8°C° 0 mm 2 m/s 772 mmHg 73%
    22:00 +7°C° 0 mm 2 m/s 772 mmHg 72%
    23:00 +7°C° 0 mm 2 m/s 772 mmHg 71%

    24 Février, Dimanche

    Heure Température Précipitation Vent Pression Humidité
    00:00 +7°C° 0 mm 1 m/s 772 mmHg 69%
    01:00 +7°C° 0 mm 1 m/s 772 mmHg 69%
    02:00 +6°C° 0 mm 1 m/s 772 mmHg 69%
    03:00 +6°C° 0 mm 1 m/s 772 mmHg 69%
    04:00 +5°C° 0 mm 1 m/s 772 mmHg 68%
    05:00 +5°C° 0 mm 1 m/s 772 mmHg 68%
    06:00 +4°C° 0 mm 2 m/s 772 mmHg 68%
    07:00 +6°C° 0 mm 1 m/s 772 mmHg 65%
    08:00 +7°C° 0 mm 1 m/s 772 mmHg 61%
    09:00 +7°C° 0 mm 1 m/s 772 mmHg 57%
    10:00 +9°C° 0 mm 1 m/s 772 mmHg 52%
    11:00 +10°C° 0 mm 1 m/s 772 mmHg 47%
    12:00 +12°C° 0 mm 2 m/s 772 mmHg 41%
    13:00 +12°C° 0 mm 2 m/s 772 mmHg 40%
    14:00 +13°C° 0 mm 2 m/s 772 mmHg 39%
    15:00 +13°C° 0 mm 2 m/s 772 mmHg 38%
    16:00 +12°C° 0 mm 2 m/s 772 mmHg 42%
    17:00 +9°C° 0 mm 2 m/s 772 mmHg 46%
    18:00 +8°C° 0 mm 2 m/s 772 mmHg 50%
    19:00 +7°C° 0 mm 2 m/s 773 mmHg 51%
    20:00 +7°C° 0 mm 2 m/s 773 mmHg 52%
    21:00 +6°C° 0 mm 2 m/s 773 mmHg 53%
    22:00 +6°C° 0 mm 2 m/s 773 mmHg 55%
    23:00 +5°C° 0 mm 2 m/s 773 mmHg 56%

    25 Février, Lundi

    Heure Température Précipitation Vent Pression Humidité
    00:00 +5°C° 0 mm 2 m/s 773 mmHg 58%
    01:00 +5°C° 0 mm 2 m/s 773 mmHg 59%
    02:00 +6°C° 0 mm 1 m/s 773 mmHg 60%
    03:00 +5°C° 0 mm 1 m/s 774 mmHg 62%
    04:00 +5°C° 0 mm 1 m/s 773 mmHg 61%
    05:00 +4°C° 0 mm 2 m/s 773 mmHg 61%
    06:00 +4°C° 0 mm 2 m/s 773 mmHg 61%
    07:00 +5°C° 0 mm 2 m/s 774 mmHg 58%
    08:00 +5°C° 0 mm 3 m/s 774 mmHg 56%
    09:00 +7°C° 0 mm 3 m/s 774 mmHg 53%
    10:00 +9°C° 0 mm 3 m/s 774 mmHg 50%
    11:00 +10°C° 0 mm 4 m/s 774 mmHg 48%
    12:00 +12°C° 0 mm 4 m/s 774 mmHg 45%
    13:00 +13°C° 0 mm 3 m/s 774 mmHg 45%
    14:00 +13°C° 0 mm 3 m/s 773 mmHg 46%
    15:00 +14°C° 0 mm 3 m/s 773 mmHg 46%
    16:00 +13°C° 0 mm 3 m/s 773 mmHg 50%
    17:00 +11°C° 0 mm 3 m/s 773 mmHg 55%
    18:00 +9°C° 0 mm 3 m/s 774 mmHg 60%
    19:00 +9°C° 0 mm 3 m/s 774 mmHg 62%
    20:00 +8°C° 0 mm 3 m/s 774 mmHg 64%
    21:00 +8°C° 0 mm 3 m/s 774 mmHg 65%
    22:00 +8°C° 0 mm 3 m/s 774 mmHg 68%
    23:00 +7°C° 0 mm 3 m/s 773 mmHg 70%
    Voir plus